[[{"header":{"parameterUnit":"m.s-1","parameterCategory":1,"la1":30.2991,"la2":30.254,"lo1":-89.0895,"lo2":-89.0444,"dx":0.0017,"dy":0.0017,"nx":28,"ny":28,"refTime":"2022-12-03T09:00:00:Z","depth":0,"parameterNumber":2,"parameterNumberName":"U-component_of_WINDS"},"data":[0,0,0,0,0,0,0,0,0,0,0,0,0,0,0,0,0,0,0,0,0,0,0,0,0,0,0,0,0,0,0,0,0,0,0,0,0,0,0,0,0,0,0,0,0,0,0,0,0,0,0,0,0,0,0,0,0,0,-0.0725,-0.0724,0,-0.0647,-0.0646,-0.0645,-0.0623,-0.0623,-0.0624,-0.0624,-0.0541,-0.0538,-0.0536,0,0,0,0,0,0,0,0,0,0,0,0,0,-0.0854,-0.0852,-0.0725,-0.0724,-0.0723,-0.0647,-0.0646,-0.0645,-0.0623,-0.0623,-0.0624,-0.0624,-0.0542,-0.0539,-0.0536,0,0,0,0,0,0,0,0,0,0,0,0,0,-0.0789,-0.0851,-0.0725,-0.0703,-0.07,-0.0647,-0.0646,-0.0645,-0.0623,-0.0623,-0.0624,-0.0624,-0.0543,-0.0539,-0.0535,-0.0498,0,0,-0.0523,-0.0521,0,0,0,0,0,0,0,0,-0.0793,-0.0784,-0.0707,-0.0705,-0.0701,-0.0645,-0.0661,-0.0595,-0.0622,-0.0652,-0.0624,-0.0625,-0.0575,-0.0568,-0.0552,-0.0494,-0.0491,-0.0523,-0.052,-0.0519,-0.0518,0,0,0,0,0,0,0,-0.0797,-0.0788,-0.0694,-0.0706,-0.0703,-0.0697,-0.0688,-0.0648,-0.0611,-0.0649,-0.0648,-0.0639,-0.0573,-0.0556,-0.055,-0.0489,-0.0523,-0.0519,-0.0517,-0.0515,-0.0399,-0.0398,0,0,0,0,0,0,-0.0806,-0.0791,-0.0697,-0.0692,-0.075,-0.0694,-0.0684,-0.0663,-0.0611,-0.0604,-0.0638,-0.0638,-0.0562,-0.0555,-0.0547,-0.0502,-0.0519,-0.0515,-0.0513,-0.04,-0.0399,-0.0398,0,0,0,0,0,0,-0.0809,-0.0798,-0.07,-0.0741,-0.0728,-0.0691,-0.0667,-0.0661,-0.0643,-0.0603,-0.0596,-0.0628,-0.0563,-0.0553,-0.0511,-0.0498,-0.0513,-0.051,-0.0401,-0.04,-0.0399,-0.041,0,0,0,0,0,0,-0.0813,-0.0799,-0.0784,-0.0741,-0.0726,-0.0666,-0.0666,-0.0659,-0.0637,-0.0636,-0.0591,-0.0584,-0.0562,-0.0517,-0.0507,-0.0493,-0.0507,-0.0402,-0.04,-0.0399,-0.041,-0.0409,-0.0408,0,0,0,0,0,-0.0817,-0.079,-0.0784,-0.0773,-0.0708,-0.0665,-0.0656,-0.0633,-0.0636,-0.0621,-0.0596,-0.0585,-0.0502,-0.0513,-0.0502,-0.0486,-0.0402,-0.0401,-0.0399,-0.0411,-0.041,-0.0408,0,0,0,0,0,0,-0.0831,-0.0783,-0.0776,-0.0734,-0.0704,-0.0661,-0.0642,-0.0632,-0.0599,-0.0599,-0.0571,-0.0561,-0.0522,-0.05,-0.0513,-0.0449,-0.0452,-0.0448,-0.0465,-0.0463,-0.0462,-0.0468,-0.0503,0,0,0,0,0,-0.0829,-0.0799,-0.0759,-0.0726,-0.0711,-0.0679,-0.066,-0.0645,-0.0612,-0.0598,-0.0569,-0.0537,-0.0504,-0.0482,-0.0449,-0.0407,-0.0398,-0.0391,-0.039,-0.039,-0.0387,-0.0365,-0.0362,-0.0393,-0.0393,-0.0393,0,0,-0.0825,-0.0795,-0.0778,-0.0728,-0.0702,-0.0672,-0.0668,-0.0635,-0.0613,-0.0593,-0.0553,-0.053,-0.0493,-0.0452,-0.0432,-0.0432,-0.0376,-0.0388,-0.0387,-0.0384,-0.0363,-0.036,-0.0357,-0.0392,-0.0392,-0.0392,0,0,-0.0802,-0.0776,-0.0746,-0.0722,-0.0684,-0.0664,-0.0657,-0.0616,-0.0601,-0.0561,-0.0546,-0.0518,-0.046,-0.0435,-0.0414,-0.0384,-0.0374,-0.0374,-0.0368,-0.0347,-0.0345,-0.0343,-0.0333,-0.033,-0.0371,-0.0371,-0.0371,0,-0.0801,-0.0755,-0.0732,-0.0701,-0.068,-0.0662,-0.0632,-0.0609,-0.0562,-0.0548,-0.0549,-0.0479,-0.0452,-0.0405,-0.0398,-0.0382,-0.0373,-0.0379,-0.0347,-0.0345,-0.0342,-0.0333,-0.0329,-0.0371,-0.0371,-0.0371,-0.0371,0,-0.0756,-0.0725,-0.0705,-0.0662,-0.0639,-0.0608,-0.0581,-0.056,-0.0547,-0.0527,-0.0487,-0.0454,-0.0415,-0.0403,-0.0389,-0.0355,-0.0357,-0.0353,-0.0355,-0.034,-0.0331,-0.0327,-0.0372,-0.0372,-0.0372,-0.0371,0,0,-0.0738,-0.0685,-0.0678,-0.066,-0.0618,-0.0593,-0.0562,-0.0525,-0.0508,-0.0477,-0.0451,-0.0404,-0.0401,-0.0378,-0.0362,-0.0343,-0.0323,-0.0342,-0.034,-0.034,-0.0285,-0.0288,-0.0284,-0.0316,-0.0316,-0.0315,-0.0288,0,-0.071,-0.0655,-0.0635,-0.059,-0.0561,-0.0545,-0.0519,-0.049,-0.0471,-0.0443,-0.0421,-0.0389,-0.0387,-0.0373,-0.0354,-0.033,-0.0312,-0.0331,-0.0292,-0.0291,-0.0302,-0.0279,-0.0282,-0.0258,-0.0284,-0.0284,-0.0283,0,-0.067,-0.0641,-0.0593,-0.0557,-0.0544,-0.0521,-0.0487,-0.046,-0.0428,-0.0416,-0.0391,-0.0377,-0.0344,-0.0349,-0.0304,-0.0318,-0.03,-0.0286,-0.0285,-0.028,-0.0286,-0.0274,-0.025,-0.0247,-0.0277,-0.0277,-0.0278,0,-0.0663,-0.0611,-0.0577,-0.0561,-0.0518,-0.0502,-0.0483,-0.0452,-0.0432,-0.0402,-0.0388,-0.0354,-0.0336,-0.031,-0.0287,-0.0292,-0.0245,-0.0247,-0.0233,-0.0234,-0.0223,-0.0224,-0.0196,-0.0212,-0.0212,-0.0212,-0.0212,0,-0.0634,-0.0606,-0.0573,-0.0552,-0.052,-0.0497,-0.0467,-0.0447,-0.0419,-0.0394,-0.0378,-0.0354,-0.0325,-0.0298,-0.028,-0.0246,-0.0237,-0.0226,-0.0222,-0.0228,-0.0229,-0.0216,-0.0217,-0.0211,-0.0211,-0.0211,-0.0212,0,-0.0621,-0.0597,-0.0559,-0.0522,-0.0513,-0.0491,-0.0459,-0.0438,-0.0419,-0.0387,-0.0378,-0.0347,-0.0315,-0.029,-0.0246,-0.0234,-0.0199,-0.0194,-0.021,-0.0208,-0.0196,-0.0198,-0.0158,-0.0153,-0.0172,-0.0172,-0.0171,0,-0.0604,-0.0582,-0.0544,-0.0527,-0.0509,-0.048,-0.0461,-0.0437,-0.0417,-0.0381,-0.0364,-0.0331,-0.0303,-0.0252,-0.0225,-0.0192,-0.0187,-0.0175,-0.0181,-0.0189,-0.0187,-0.0189,-0.0187,-0.0174,-0.0174,-0.0174,-0.0174,0,-0.0578,-0.0568,-0.054,-0.0509,-0.0486,-0.046,-0.0434,-0.042,-0.0393,-0.0371,-0.0338,-0.0317,-0.0274,-0.0242,-0.0207,-0.0187,-0.0176,-0.0173,-0.0168,-0.0174,-0.0185,-0.018,-0.0209,-0.0174,-0.0174,-0.0174,-0.0174,-0.0174,-0.0562,-0.0543,-0.0514,-0.0484,-0.0462,-0.0439,-0.0418,-0.0397,-0.0369,-0.0334,-0.0322,-0.0288,-0.0258,-0.0211,-0.0191,-0.0165,-0.0164,-0.0157,-0.0155,-0.0154,-0.0155,-0.0189,-0.0158,-0.0158,-0.0158,-0.0158,-0.0158,0,-0.0536,-0.0517,-0.049,-0.0454,-0.0431,-0.0425,-0.0396,-0.0377,-0.0348,-0.0321,-0.0295,-0.0258,-0.0227,-0.0199,-0.0167,-0.0151,-0.0145,-0.0143,-0.0144,-0.014,-0.0157,-0.0165,-0.0148,-0.0148,-0.0148,-0.0148,-0.0148,-0.0149,-0.0519,-0.0487,-0.0474,-0.0431,-0.0412,-0.038,-0.0364,-0.0342,-0.0321,-0.0282,-0.0256,-0.0239,-0.0212,-0.0178,-0.0149,-0.0141,-0.013,-0.013,-0.0121,-0.0137,-0.0139,-0.014,-0.0147,-0.0128,-0.0128,-0.0107,-0.0106,-0.0106]},{"header":{"parameterUnit":"m.s-1","parameterCategory":1,"la1":30.2991,"la2":30.254,"lo1":-89.0895,"lo2":-89.0444,"dx":0.0017,"dy":0.0017,"nx":28,"ny":28,"refTime":"2022-12-03T09:00:00:Z","depth":0,"parameterNumber":3,"parameterNumberName":"V-component_of_WINDS"},"data":[0,0,0,0,0,0,0,0,0,0,0,0,0,0,0,0,0,0,0,0,0,0,0,0,0,0,0,0,0,0,0,0,0,0,0,0,0,0,0,0,0,0,0,0,0,0,0,0,0,0,0,0,0,0,0,0,0,0,1.2823,1.2821,0,1.2709,1.2708,1.2707,1.2643,1.2643,1.2643,1.2642,1.2521,1.2518,1.2515,0,0,0,0,0,0,0,0,0,0,0,0,0,1.2978,1.2975,1.2823,1.2821,1.282,1.271,1.2708,1.2706,1.2643,1.2643,1.2643,1.2642,1.2522,1.2518,1.2514,0,0,0,0,0,0,0,0,0,0,0,0,0,1.2892,1.2974,1.2823,1.2775,1.277,1.271,1.2708,1.2706,1.2643,1.2643,1.2642,1.2642,1.2523,1.2518,1.2514,1.2491,0,0,1.25,1.2498,0,0,0,0,0,0,0,0,1.2897,1.2886,1.2784,1.2778,1.2772,1.269,1.2718,1.2634,1.2643,1.2691,1.2642,1.2642,1.2577,1.2568,1.2547,1.2485,1.248,1.2499,1.2497,1.2495,1.2493,0,0,0,0,0,0,0,1.2903,1.2891,1.2778,1.2782,1.2775,1.2757,1.2745,1.2702,1.2637,1.2687,1.2682,1.267,1.2574,1.2552,1.2544,1.2478,1.25,1.2495,1.2493,1.2491,1.2389,1.239,0,0,0,0,0,0,1.2917,1.2896,1.2781,1.2774,1.2835,1.2755,1.2741,1.2717,1.2637,1.2625,1.267,1.2667,1.256,1.2549,1.2539,1.2506,1.2495,1.249,1.2488,1.2389,1.2389,1.239,0,0,0,0,0,0,1.2921,1.2908,1.2786,1.2834,1.2817,1.2752,1.2726,1.2715,1.2692,1.2624,1.2612,1.266,1.2559,1.2546,1.2503,1.25,1.2488,1.2484,1.2389,1.2389,1.239,1.244,0,0,0,0,0,0,1.2926,1.2909,1.2902,1.2834,1.2815,1.2754,1.2726,1.2713,1.2685,1.2681,1.2612,1.26,1.2558,1.2511,1.2499,1.2494,1.248,1.2389,1.2389,1.2389,1.2438,1.2441,1.2444,0,0,0,0,0,1.2931,1.292,1.2902,1.2888,1.2804,1.2754,1.2743,1.2696,1.2686,1.2676,1.2632,1.2602,1.2503,1.2507,1.2493,1.2487,1.2389,1.2389,1.2389,1.2436,1.2441,1.2444,0,0,0,0,0,0,1.2987,1.291,1.2889,1.2856,1.2812,1.2744,1.273,1.2703,1.266,1.2657,1.2599,1.2584,1.2546,1.2512,1.2518,1.2459,1.2443,1.244,1.2483,1.2487,1.249,1.2498,1.2477,0,0,0,0,0,1.2996,1.2963,1.2897,1.2874,1.2853,1.2796,1.2772,1.274,1.2692,1.2673,1.2625,1.2578,1.2536,1.2509,1.2467,1.2433,1.2415,1.2421,1.2425,1.2428,1.2426,1.2403,1.2404,1.239,1.239,1.239,0,0,1.3012,1.2966,1.2949,1.2884,1.2846,1.2812,1.2781,1.2746,1.2719,1.2667,1.2624,1.2588,1.2531,1.2492,1.2472,1.2462,1.2426,1.2428,1.2431,1.2427,1.2403,1.2404,1.2406,1.239,1.239,1.239,0,0,1.3025,1.2989,1.2964,1.2927,1.2872,1.2833,1.2828,1.2763,1.2737,1.2694,1.2653,1.2619,1.2549,1.2509,1.248,1.2477,1.2447,1.2465,1.2481,1.246,1.2461,1.2461,1.2458,1.2458,1.2463,1.2463,1.2463,0,1.3053,1.3002,1.2955,1.2922,1.2894,1.2846,1.2819,1.2785,1.2718,1.2698,1.2688,1.2597,1.2556,1.2506,1.2505,1.2484,1.2473,1.2472,1.2465,1.2465,1.2465,1.2461,1.2461,1.2466,1.2465,1.2465,1.2465,0,1.3038,1.3003,1.2989,1.2927,1.2897,1.2867,1.2813,1.2788,1.2758,1.272,1.2675,1.2624,1.2569,1.2555,1.2525,1.2501,1.2496,1.2476,1.2458,1.2469,1.2465,1.2463,1.2469,1.2468,1.2467,1.2467,0,0,1.3082,1.2994,1.299,1.296,1.2895,1.2865,1.2833,1.2781,1.276,1.2714,1.2684,1.2625,1.2606,1.2573,1.2538,1.2519,1.2517,1.2501,1.2498,1.2504,1.2484,1.2499,1.2499,1.2498,1.2497,1.2497,1.2489,0,1.3085,1.3027,1.2983,1.294,1.2906,1.2859,1.2831,1.2786,1.2749,1.2713,1.2671,1.263,1.2609,1.2588,1.2568,1.2522,1.2512,1.2522,1.2466,1.2465,1.2481,1.2497,1.2512,1.2507,1.2487,1.2487,1.2486,0,1.308,1.3038,1.2993,1.2929,1.2913,1.2889,1.2837,1.2804,1.2751,1.2725,1.2688,1.2652,1.2613,1.2599,1.2543,1.2551,1.2525,1.2499,1.2498,1.249,1.2476,1.2488,1.2505,1.2504,1.2484,1.2484,1.2484,0,1.3116,1.3047,1.3011,1.2987,1.2913,1.2896,1.2864,1.2811,1.2783,1.2737,1.2717,1.2666,1.2638,1.2599,1.2549,1.2544,1.2497,1.248,1.2473,1.2474,1.2465,1.2466,1.2477,1.245,1.245,1.245,1.245,0,1.3122,1.3096,1.3026,1.3003,1.2971,1.292,1.2889,1.2852,1.2806,1.2773,1.273,1.27,1.2637,1.2598,1.2559,1.2517,1.2505,1.2481,1.2471,1.2485,1.2488,1.2466,1.2465,1.245,1.245,1.245,1.245,0,1.3156,1.3109,1.3066,1.2999,1.2981,1.2961,1.2902,1.2877,1.2838,1.2798,1.2785,1.2723,1.2676,1.2622,1.2557,1.253,1.249,1.2476,1.2509,1.2503,1.2498,1.2499,1.2495,1.2491,1.2469,1.2469,1.247,0,1.3164,1.3142,1.3074,1.305,1.3019,1.2982,1.2952,1.29,1.2871,1.2809,1.279,1.274,1.2697,1.2623,1.257,1.2519,1.2502,1.2504,1.2494,1.2508,1.25,1.2502,1.2499,1.2507,1.2507,1.2508,1.2508,0,1.318,1.3158,1.3119,1.3071,1.3037,1.2997,1.2954,1.2936,1.2874,1.2843,1.2795,1.2762,1.2695,1.2645,1.2587,1.2551,1.2519,1.2512,1.2507,1.2521,1.254,1.2528,1.2516,1.2512,1.2512,1.2511,1.2511,1.2511,1.32,1.3178,1.3127,1.3084,1.3046,1.3007,1.298,1.2938,1.2898,1.2841,1.2812,1.2763,1.2709,1.2628,1.2593,1.2553,1.2542,1.2536,1.2534,1.2533,1.2537,1.2548,1.2542,1.2542,1.2542,1.2542,1.2542,0,1.3213,1.3178,1.3139,1.3081,1.3047,1.3022,1.2972,1.2945,1.2904,1.2857,1.2815,1.2759,1.2709,1.2653,1.2599,1.2578,1.2561,1.2565,1.2566,1.2558,1.255,1.2558,1.2579,1.2579,1.2579,1.2579,1.2579,1.2579,1.3216,1.3178,1.3149,1.3091,1.3055,1.3009,1.2983,1.2945,1.2907,1.2847,1.2807,1.2771,1.2719,1.2661,1.2614,1.2598,1.258,1.2588,1.2568,1.2561,1.2558,1.2555,1.2563,1.2585,1.2585,1.2579,1.2579,1.2579]}]]